User: anonymous   Login
Location: Unspecified
(0.0000°N, 0.0000°E)
Time: 16:23:42
(UTC+00:00)
Language:

Tiros 4 - Orbit

View from above orbital plane
View from above orbital plane
View from above satellite
View from above satellite

Ground track
Ground track

The orbit data is extracted from the following two-line orbital elements,

1   226U 62002A   19016.45365050 -.00000149  00000-0  64437-5 0  9999
2   226  48.2978  11.6097 0078781 267.0635  92.1246 14.45639404997294
Epoch (UTC): 16 January 2019 10:53:15
Eccentricity: 0.0078781
inclination: 48.2978°
perigee height: 684 km
apogee height: 796 km
right ascension of ascending node: 11.6097°
argument of perigee: 267.0635°
revolutions per day: 14.45639404
mean anomaly at epoch: 92.1246°
orbit number at epoch: 99729

The dashed part of the orbit path shows where the satellite is in the earth's shadow,  

DLR